Location: Newark
(45.5000°N, 11.4167°E)
Time: 22:40:21
(UTC+00:00)

Altair - Pass Details

Date: 01 September 2019
Orbit: 1501 x 1683 km, 47.2° (Epoch: 21 September)

Event Time Altitude Azimuth Distance (km) Brightness Sun altitude
Exits shadow 03:14:40 - 278° (W) 4,072 9.2 -14.0°
Reaches altitude 10° 03:15:21 10° 279° (W) 3,860 9.1 -13.9°
Maximum altitude 03:25:13 83° 8° (N) 1,595 7.6 -12.4°
Drops below altitude 10° 03:34:40 10° 97° (E) 3,712 10.5 -10.9°
Sets 03:37:40 0° 98° (E) 4,675 11.1 -10.4°
